Regional Weather Roundup
Issued by NWS

Home | Current Version | Previous Version | Text Only | Print | Product List | Glossary On
Versions: 1 2 3 4 5 6 7 8 9 10 11 12 13 14 15 16 17 18 19 20 21 22 23 24 25 26 27 28 29 30 31 32 33 34 35 36 37 38 39 40 41 42 43 44 45 46 47 48 49 50
000
ASUS43 KDTX 262310
RWRMI
MICHIGAN HOURLY REGIONAL WEATHER ROUNDUP
NATIONAL WEATHER SERVICE DETROIT/PONTIAC MI
ISSUED BY NATIONAL WEATHER SERVICE GRAND RAPIDS MI
700 PM EDT WED JUL 26 2017

NOTE: "FAIR" INDICATES FEW OR NO CLOUDS BELOW 12,000 FEET WITH NO
SIGNIFICANT WEATHER AND/OR OBSTRUCTION TO VISIBILITY.

MIZ047>049-052>055-059>063-066>070-074>076-081>083-270000-
SOUTHEAST LOWER MICHIGAN

CITY           SKY/WX    TMP DP  RH WIND       PRES   REMARKS
ADRIAN         MOSUNNY   77  61  57 S5        30.05F
ALMA           CLOUDY    78  63  61 S3        30.04S
ANN ARBOR      PTSUNNY   79  61  53 S5        30.04F
BAD AXE        RAIN      70  67  90 S12       30.02S
DETROIT CITY   MOSUNNY   80  61  52 SW6       30.04F
DETROIT        CLOUDY    79  62  56 S6        30.05F
FLINT          MOSUNNY   80  62  54 SW3       30.04S
GROSSE ILE     PTSUNNY   76  65  70 S5        30.04S
HILLSDALE      PTSUNNY   77  61  57 SE3       30.05S
HOWELL         CLOUDY    78  63  59 S5        30.05S

CITY           SKY/WX    TMP DP  RH WIND       PRES   REMARKS
JACKSON        PTSUNNY   80  61  52 SW7       30.04F
LANSING        CLOUDY    79  62  56 W3        30.04F
MASON          MOSUNNY   78  63  60 CALM      30.04F
MONROE         MOSUNNY   79  64  59 CALM      30.04F
MT. CLEMENS    CLOUDY    76  66  71 S9        30.03F
PONTIAC        PTSUNNY   78  61  55 S5        30.03F
PORT HOPE        N/A     69  66  90 S6        29.97F
PORT HURON     PTSUNNY   77  64  65 S5        30.04F
TRI CITIES     LGT RAIN  73  71  93 CALM      30.05R FOG
YPSILANTI      PTSUNNY   80  64  58 S8        30.05F
$$
MIZ043>046-050>051-056>058-064>065-071>073-077>080-270000-
SOUTHWEST LOWER MICHIGAN

CITY           SKY/WX    TMP DP  RH WIND       PRES   REMARKS
BATTLE CREEK   PTSUNNY   80  63  55 S7        30.03F
BENTON HARBOR  CLOUDY    80  67  64 CALM      30.00F
BIG RAPIDS     CLOUDY    71  68  93 S7        30.02F
COLDWATER      PTSUNNY   79  64  58 CALM      30.03F
HOLLAND        CLOUDY    80  65  59 SW5       30.01F
GRAND RAPIDS   CLOUDY    79  66  64 SE7       30.01F
KALAMAZOO      CLOUDY    81  61  50 CALM      30.01F
MARSHALL       PTSUNNY   80  64  58 CALM      30.03F
MOUNT PLEASANT RAIN      72  69  91 CALM      30.03F
MUSKEGON       CLOUDY    77  64  64 CALM      30.02S
STURGIS        MOSUNNY   79  66  64 SW5       30.02F
$$
MIZ016>042-270000-
NORTHERN LOWER MICHIGAN

CITY           SKY/WX    TMP DP  RH WIND       PRES   REMARKS
ALPENA         CLOUDY    71  69  93 SW7       29.96S
BEAVER ISLAND  CLOUDY    69  66  92 SW12G17   29.94F
BELLAIRE       CLOUDY    71  67  87 S3        29.96F
CADILLAC       LGT RAIN  70  67  90 S12       29.98F
CHARLEVOIX     CLOUDY    71  69  92 SW8       29.98S
GAYLORD        CLOUDY    70  65  84 SW13      29.99S
HOUGHTON LAKE  CLOUDY    70  67  90 SW9G20    30.00F
MANISTEE       CLOUDY    70  68  94 SW7       29.99R
OSCODA         CLOUDY    69  67  93 SW12      29.98R
PELLSTON       CLOUDY    70  67  90 W8        29.95F
TRAVERSE CITY  CLOUDY    73  67  81 SW7       29.95F
LUDINGTON      LGT RAIN  69  68  98 SW10      30.00R
$$
MIZ007>008-015-270000-
EASTERN UPPER MICHIGAN

CITY           SKY/WX    TMP DP  RH WIND       PRES   REMARKS
KINROSS        MOSUNNY   74  63  68 N5        29.93R
MACKINAC ISLAN CLOUDY    67  67 100 SW13G28   29.94S
NEWBERRY       CLOUDY    73  61  65 NW3       29.92F
S. S. MARIE    SUNNY     74  60  61 NW8       29.92S
$$
MIZ004>006-011>014-085-270000-
CENTRAL UPPER MICHIGAN

CITY           SKY/WX    TMP DP  RH WIND       PRES   REMARKS
MANISTIQUE     CLOUDY    68  65  89 SW8       29.93S
ESCANABA       MOSUNNY   75  71  87 S9        29.90F
MENOMINEE      CLOUDY    77  71  82 SW6       29.93F
SAWYER-GWINN   MOSUNNY   75  59  57 E7        29.94S
$$
MIZ001>003-009>011-084-270000-
WESTERN UPPER MICHIGAN

CITY           SKY/WX    TMP DP  RH WIND       PRES   REMARKS
IRON MOUNTAIN  MOSUNNY   83  59  44 W6        29.91F
HOUGHTON       SUNNY     76  53  44 W16       29.94S
COPPER HARBOR    N/A     77  52  41 N14G21    29.90S
IRONWOOD       SUNNY     77  59  53 NW8G16    29.98F
$$

ABBREVIATIONS USED IN REMARKS
   TC - TEMPERATURE IN CELSIUS
  WCI - WIND CHILL INDEX
   HX - HEAT INDEX
  VSB - VISIBILITY




USA.gov is the U.S. government's official web portal to all federal, state and local government web resources and services.